TimeEST,TemperatureF,Dew PointF,Humidity,Sea Level PressureIn,VisibilityMPH,Wind Direction,Wind SpeedMPH,Gust SpeedMPH,PrecipitationIn,Events,Conditions,WindDirDegrees,DateUTC
12:32 AM,48.2,46.4,93,29.83,5.0,West,6.9,-,N/A,,Overcast,260,2013-12-15 05:32:00
12:56 AM,48.0,46.0,93,29.84,5.0,West,10.4,-,N/A,,Overcast,280,2013-12-15 05:56:00
1:56 AM,48.9,46.9,93,29.84,5.0,West,4.6,-,0.00,Rain,Light Rain,260,2013-12-15 06:56:00
2:31 AM,48.2,46.4,93,29.83,4.0,SSW,3.5,-,0.01,Rain,Light Rain,200,2013-12-15 07:31:00
2:56 AM,48.9,46.9,93,29.80,3.0,SE,5.8,-,0.03,Rain,Light Rain,140,2013-12-15 07:56:00
3:56 AM,50.0,48.9,96,29.81,5.0,West,5.8,-,0.01,Rain,Light Rain,270,2013-12-15 08:56:00
4:56 AM,52.0,50.0,93,29.78,8.0,WSW,8.1,-,0.00,,Scattered Clouds,240,2013-12-15 09:56:00
5:56 AM,53.1,51.1,93,29.80,10.0,WSW,9.2,-,N/A,,Mostly Cloudy,240,2013-12-15 10:56:00
6:56 AM,54.0,48.9,83,29.83,10.0,WSW,10.4,-,N/A,,Mostly Cloudy,240,2013-12-15 11:56:00
7:56 AM,52.0,46.9,83,29.86,10.0,West,9.2,-,N/A,,Mostly Cloudy,260,2013-12-15 12:56:00
8:56 AM,53.1,46.9,80,29.90,10.0,WSW,11.5,-,N/A,,Mostly Cloudy,250,2013-12-15 13:56:00
9:56 AM,53.1,46.0,77,29.93,10.0,West,13.8,20.7,N/A,,Mostly Cloudy,280,2013-12-15 14:56:00
10:56 AM,52.0,43.0,71,29.95,10.0,West,15.0,-,N/A,,Mostly Cloudy,270,2013-12-15 15:56:00
11:16 AM,51.8,42.8,71,29.94,10.0,West,15.0,-,N/A,,Overcast,280,2013-12-15 16:16:00
11:56 AM,52.0,42.1,69,29.94,10.0,West,12.7,-,N/A,,Overcast,280,2013-12-15 16:56:00
12:56 PM,53.1,43.0,69,29.93,10.0,WNW,10.4,-,N/A,,Mostly Cloudy,290,2013-12-15 17:56:00
1:56 PM,55.9,43.0,62,29.92,10.0,NW,6.9,-,N/A,,Mostly Cloudy,310,2013-12-15 18:56:00
2:37 PM,57.2,42.8,59,29.93,10.0,West,13.8,-,N/A,,Mostly Cloudy,270,2013-12-15 19:37:00
2:56 PM,57.9,42.1,56,29.94,10.0,West,13.8,-,N/A,,Mostly Cloudy,270,2013-12-15 19:56:00
3:56 PM,57.0,41.0,55,29.95,10.0,WNW,11.5,-,N/A,,Scattered Clouds,290,2013-12-15 20:56:00
4:56 PM,55.9,37.9,51,29.97,10.0,WNW,8.1,-,N/A,,Mostly Cloudy,300,2013-12-15 21:56:00
5:56 PM,50.0,39.9,68,30.00,10.0,West,3.5,-,N/A,,Mostly Cloudy,260,2013-12-15 22:56:00
6:56 PM,48.0,41.0,77,30.04,10.0,NW,5.8,-,N/A,,Scattered Clouds,310,2013-12-15 23:56:00
7:56 PM,48.9,35.1,59,30.07,10.0,NNW,3.5,-,N/A,,Partly Cloudy,340,2013-12-16 00:56:00
8:56 PM,48.0,28.9,48,30.09,10.0,NW,5.8,-,N/A,,Partly Cloudy,320,2013-12-16 01:56:00
9:56 PM,46.9,28.0,48,30.11,10.0,NW,5.8,-,N/A,,Clear,310,2013-12-16 02:56:00
10:56 PM,42.1,28.9,60,30.14,10.0,Calm,Calm,-,N/A,,Clear,0,2013-12-16 03:56:00
11:56 PM,37.9,30.9,76,30.14,10.0,Calm,Calm,-,N/A,,Clear,0,2013-12-16 04:56:00